Location: Stuttgart
(48.7824°N, 9.1964°E)
Time: 23:39:41
(UTC+01:00)

ISS - Pass Details

Date: 25 January 2019
Orbit: 403 x 411 km, 51.6° (Epoch: 20 February)

Event Time Altitude Azimuth Distance (km) Brightness Sun altitude
Rises 18:26:30 0° 222° (SW) 2,324 1.0 -12.7°
Reaches altitude 10° 18:28:40 10° 212° (SSW) 1,469 -0.3 -13.0°
Maximum altitude 18:31:41 34° 146° (SE) 702 -2.8 -13.5°
Enters shadow 18:32:58 24° 102° (ESE) 894 -2.6 -13.7°
